Home   Weather   Feira de Santana   Past weeks

Flag for Brazil Past Weather in Feira de Santana, Bahia, Brazil — Yesterday and Last 2 Weeks

79 °F

Passing clouds.

Feels Like: 82 °F
Forecast: 69 / 91 °F
Wind: 15 mph from East

Location: Salvador Aeroporto

Current Time: Oct 21, 2016 at 10:50:48 PM

Latest Report: Oct 21, 2016 at 10:00 PM

Visibility: N/A

Pressure: 29.92 "Hg

Humidity: 79%

Dew Point: 72 °F

Location of Feira de SantanaLocation

Past Weather in Feira de Santana — Graph


Feira de Santana Temperature Yesterday

Maximum temperature yesterday: 84 °F (at 11:00 AM)
Minimum temperature yesterday: 75 °F (at 3:00 AM)
Average temperature yesterday: 79 °F

High & Low Weather Summary for the Past Weeks

High86 °F (Oct 7, 12:00 PM)94% (Oct 7, 5:00 AM)30.12 "Hg (Oct 7, 5:00 AM)
Low72 °F (Oct 17, 11:00 PM)55% (Oct 20, 11:00 AM)29.71 "Hg (Oct 7, 3:00 PM)
Average79 °F77%29.98 "Hg
* Reported Oct 6 9:00 PM — Oct 21 9:00 PM, Feira de Santana, Weather by CustomWeather, © 2016

Note: Actual official high and low records may vary slightly from our data, if they occured in-between our weather recording intervals... More about our weather records


Feira de Santana Weather History for the Previous 24 Hours

Scroll right to see more
Time TempWeatherWind HumidityBarometerVisibility
9:00 PM
Fri, Oct 21
79 °FPassing clouds.14 mph79%29.92 "HgN/A
8:00 PM79 °FPassing clouds.15 mph79%29.92 "HgN/A
7:00 PM79 °FPassing clouds.16 mph79%29.89 "HgN/A
6:00 PM79 °FPassing clouds.15 mph79%29.89 "HgN/A
5:00 PM81 °FPassing clouds.15 mph74%29.86 "HgN/A
4:00 PM82 °FPassing clouds.18 mph74%29.86 "HgN/A
3:00 PM82 °FPassing clouds.17 mph70%29.86 "HgN/A
2:00 PM84 °FPassing clouds.18 mph70%29.89 "HgN/A
1:00 PM82 °FPassing clouds.18 mph70%29.89 "HgN/A
12:00 PM84 °FPassing clouds.17 mph70%29.92 "HgN/A
11:00 AM84 °FScattered clouds.15 mph66%29.95 "HgN/A
10:00 AM82 °FScattered clouds.15 mph70%29.98 "HgN/A
9:00 AM81 °FScattered clouds.10 mph70%29.98 "HgN/A
8:00 AM79 °FScattered clouds.3 mph74%29.98 "HgN/A
7:00 AM75 °FScattered clouds.8 mph83%30.01 "HgN/A
6:00 AM75 °FScattered clouds.No wind89%29.92 "HgN/A
5:00 AM73 °FPassing clouds.5 mph89%29.92 "HgN/A
4:00 AM75 °FRain showers. Passing clouds.5 mph83%29.89 "Hg4 mi
2:00 AM77 °FPassing clouds.9 mph79%29.86 "HgN/A
1:00 AM77 °FPassing clouds.8 mph79%29.86 "HgN/A
12:00 AM73 °FPassing clouds.13 mph89%29.86 "HgN/A
11:00 PM
Thu, Oct 20
77 °FPassing clouds.14 mph79%29.89 "HgN/A
10:00 PM79 °FPassing clouds.15 mph74%29.89 "HgN/A
Weather by CustomWeather, © 2016

See weather overviewHow to use our weather pages